Time,TemperatureF,DewpointF,PressureIn,WindDirection,WindDirectionDegrees,WindSpeedMPH,WindSpeedGustMPH,Humidity,HourlyPrecipIn,Conditions,Clouds,dailyrainin,SoftwareType,DateUTC
2013-08-07 00:03:00,70.7,55.2,-100.00,South,180,0.0,0.0,58,-99.99,,,-99.99,WSDL version 423,2013-08-07 04:03:00,
2013-08-07 00:06:00,70.7,55.2,-100.00,South,180,0.0,0.0,58,0.00,,,0.00,WSDL version 423,2013-08-07 04:06:00,
2013-08-07 00:12:00,70.6,55.1,-100.00,SE,135,0.0,0.0,58,-99.99,,,-99.99,WSDL version 423,2013-08-07 04:12:00,
2013-08-07 00:15:00,70.5,55.2,-100.00,SE,135,0.0,0.0,59,0.00,,,0.00,WSDL version 423,2013-08-07 04:15:00,
2013-08-07 00:21:00,70.5,55.5,-100.00,SE,135,0.0,0.0,59,0.00,,,0.00,WSDL version 423,2013-08-07 04:21:00,
2013-08-07 00:27:00,70.5,55.5,-100.00,SE,135,0.0,0.0,59,-99.99,,,-99.99,WSDL version 423,2013-08-07 04:27:00,
2013-08-07 00:33:00,70.4,55.4,-100.00,SE,135,0.0,0.0,59,-99.99,,,-99.99,WSDL version 423,2013-08-07 04:33:00,
2013-08-07 00:36:00,70.3,55.6,-100.00,SE,135,0.0,0.0,60,-99.99,,,-99.99,WSDL version 423,2013-08-07 04:36:00,
2013-08-07 00:42:00,70.3,55.8,-100.00,SE,135,0.0,0.0,60,-99.99,,,-99.99,WSDL version 423,2013-08-07 04:42:00,
2013-08-07 00:48:00,70.3,55.8,-100.00,SE,135,0.0,0.0,60,0.00,,,0.00,WSDL version 423,2013-08-07 04:48:00,
2013-08-07 00:54:00,70.2,55.6,-100.00,SE,135,0.0,0.0,60,-99.99,,,-99.99,WSDL version 423,2013-08-07 04:54:00,
2013-08-07 01:00:00,70.2,55.8,-100.00,SE,135,0.0,0.0,61,-99.99,,,-99.99,WSDL version 423,2013-08-07 05:00:00,
2013-08-07 01:06:00,70.2,56.1,-100.00,South,180,0.0,0.0,61,-99.99,,,-99.99,WSDL version 423,2013-08-07 05:06:00,
2013-08-07 01:12:00,70.2,56.1,-100.00,South,180,0.0,0.0,61,-99.99,,,-99.99,WSDL version 423,2013-08-07 05:12:00,
2013-08-07 01:18:00,70.2,56.1,-100.00,South,180,0.0,0.0,61,-99.99,,,-99.99,WSDL version 423,2013-08-07 05:18:00,
2013-08-07 01:24:00,70.2,56.1,-100.00,South,180,0.0,0.0,61,-99.99,,,-99.99,WSDL version 423,2013-08-07 05:24:00,
2013-08-07 01:30:00,70.2,56.1,-100.00,South,180,0.0,0.0,61,-99.99,,,-99.99,WSDL version 423,2013-08-07 05:30:00,
2013-08-07 01:36:00,70.2,56.1,-100.00,South,180,0.0,0.0,61,-99.99,,,-99.99,WSDL version 423,2013-08-07 05:36:00,
2013-08-07 01:42:00,70.0,56.4,-100.00,South,180,0.0,0.0,62,-99.99,,,-99.99,WSDL version 423,2013-08-07 05:42:00,
2013-08-07 01:48:00,70.0,56.4,-100.00,South,180,0.0,0.0,62,-99.99,,,-99.99,WSDL version 423,2013-08-07 05:48:00,
2013-08-07 01:54:00,70.0,56.4,-100.00,South,180,0.0,0.0,62,-99.99,,,-99.99,WSDL version 423,2013-08-07 05:54:00,
2013-08-07 02:00:00,70.0,56.4,-100.00,SE,135,0.0,0.0,62,-99.99,,,-99.99,WSDL version 423,2013-08-07 06:00:00,
2013-08-07 02:06:00,69.8,56.5,-100.00,SE,135,0.0,0.0,63,0.00,,,0.00,WSDL version 423,2013-08-07 06:06:00,
2013-08-07 02:12:00,69.7,56.6,-100.00,SE,135,0.0,0.0,63,-99.99,,,-99.99,WSDL version 423,2013-08-07 06:12:00,
2013-08-07 02:18:00,69.6,56.9,-100.00,SE,135,0.0,0.0,64,0.00,,,0.00,WSDL version 423,2013-08-07 06:18:00,
2013-08-07 02:24:00,69.6,56.9,-100.00,SE,135,0.0,0.0,64,-99.99,,,-99.99,WSDL version 423,2013-08-07 06:24:00,
2013-08-07 02:30:00,69.4,56.7,-100.00,SE,135,0.0,0.0,64,-99.99,,,-99.99,WSDL version 423,2013-08-07 06:30:00,
2013-08-07 02:36:00,69.1,56.4,-100.00,SE,135,0.0,0.0,64,-99.99,,,-99.99,WSDL version 423,2013-08-07 06:36:00,
2013-08-07 02:42:00,68.8,56.2,-100.00,SE,135,0.0,0.0,64,-99.99,,,-99.99,WSDL version 423,2013-08-07 06:42:00,
2013-08-07 02:48:00,68.7,56.1,-100.00,SE,135,0.0,0.0,64,-99.99,,,-99.99,WSDL version 423,2013-08-07 06:48:00,
2013-08-07 02:54:00,68.5,56.3,-100.00,SE,135,0.0,0.0,65,-99.99,,,-99.99,WSDL version 423,2013-08-07 06:54:00,
2013-08-07 03:00:00,68.5,56.3,-100.00,SE,135,0.0,0.0,65,-99.99,,,-99.99,WSDL version 423,2013-08-07 07:00:00,
2013-08-07 03:06:00,68.4,56.2,-100.00,SE,135,0.0,0.0,65,-99.99,,,-99.99,WSDL version 423,2013-08-07 07:06:00,
2013-08-07 03:12:00,68.4,56.2,-100.00,SE,135,0.0,0.0,65,-99.99,,,-99.99,WSDL version 423,2013-08-07 07:12:00,
2013-08-07 03:18:00,68.2,56.3,-100.00,SE,135,0.0,0.0,66,-99.99,,,-99.99,WSDL version 423,2013-08-07 07:18:00,
2013-08-07 03:24:00,68.0,56.2,-100.00,SE,135,0.0,0.0,66,0.00,,,0.00,WSDL version 423,2013-08-07 07:24:00,
2013-08-07 03:30:00,67.8,56.3,-100.00,SE,135,0.0,0.0,67,0.00,,,0.00,WSDL version 423,2013-08-07 07:30:00,
2013-08-07 03:36:00,67.6,56.2,-100.00,SE,135,0.0,0.0,67,-99.99,,,-99.99,WSDL version 423,2013-08-07 07:36:00,
2013-08-07 03:42:00,67.5,56.1,-100.00,SE,135,0.0,0.0,67,0.00,,,0.00,WSDL version 423,2013-08-07 07:42:00,
2013-08-07 03:48:00,67.5,56.2,-100.00,SE,135,0.0,0.0,67,0.00,,,0.00,WSDL version 423,2013-08-07 07:48:00,
2013-08-07 03:54:00,67.6,56.6,-100.00,SE,135,0.0,0.0,68,0.00,,,0.00,WSDL version 423,2013-08-07 07:54:00,
2013-08-07 04:00:00,67.6,56.7,-100.00,SE,135,0.0,0.0,68,0.00,,,0.00,WSDL version 423,2013-08-07 08:00:00,
2013-08-07 04:06:00,67.8,56.8,-100.00,SE,135,0.0,0.0,68,0.00,,,0.00,WSDL version 423,2013-08-07 08:06:00,
2013-08-07 04:12:00,67.8,56.9,-100.00,SE,135,0.0,0.0,68,0.00,,,0.00,WSDL version 423,2013-08-07 08:12:00,
2013-08-07 04:18:00,67.8,56.9,-100.00,SE,135,0.0,0.0,68,0.00,,,0.00,WSDL version 423,2013-08-07 08:18:00,
2013-08-07 04:24:00,68.0,57.1,-100.00,SE,135,0.0,0.0,68,-99.99,,,-99.99,WSDL version 423,2013-08-07 08:24:00,
2013-08-07 04:30:00,68.0,57.1,-100.00,SE,135,0.0,0.0,68,0.00,,,0.00,WSDL version 423,2013-08-07 08:30:00,
2013-08-07 04:36:00,68.0,57.1,-100.00,SE,135,0.0,0.0,68,0.00,,,0.00,WSDL version 423,2013-08-07 08:36:00,
2013-08-07 04:42:00,68.0,57.1,-100.00,SE,135,0.0,0.0,68,0.00,,,0.00,WSDL version 423,2013-08-07 08:42:00,
2013-08-07 04:48:00,68.2,57.2,-100.00,SE,135,0.0,0.0,68,0.00,,,0.00,WSDL version 423,2013-08-07 08:48:00,
2013-08-07 04:54:00,68.2,57.2,-100.00,SE,135,0.0,0.0,68,-99.99,,,-99.99,WSDL version 423,2013-08-07 08:54:00,
2013-08-07 05:00:00,68.2,57.2,-100.00,SE,135,0.0,0.0,68,0.00,,,0.00,WSDL version 423,2013-08-07 09:00:00,
2013-08-07 05:06:00,68.2,57.3,-100.00,SE,135,0.0,0.0,68,0.00,,,0.00,WSDL version 423,2013-08-07 09:06:00,
2013-08-07 05:12:00,68.4,57.4,-100.00,SE,135,0.0,0.0,68,0.00,,,0.00,WSDL version 423,2013-08-07 09:12:00,
2013-08-07 05:18:00,68.4,57.4,-100.00,SE,135,0.0,0.0,68,0.00,,,0.00,WSDL version 423,2013-08-07 09:18:00,
2013-08-07 05:24:00,68.4,57.4,-100.00,SE,135,0.0,0.0,68,0.00,,,0.00,WSDL version 423,2013-08-07 09:24:00,
2013-08-07 05:30:00,68.4,57.4,-100.00,SE,135,0.0,0.0,68,-99.99,,,-99.99,WSDL version 423,2013-08-07 09:30:00,
2013-08-07 05:36:00,68.4,57.4,-100.00,SE,135,0.0,0.0,68,0.00,,,0.00,WSDL version 423,2013-08-07 09:36:00,
2013-08-07 05:42:00,68.4,57.4,-100.00,SE,135,0.0,0.0,68,0.00,,,0.00,WSDL version 423,2013-08-07 09:42:00,
2013-08-07 05:48:00,68.4,57.5,-100.00,SE,135,0.0,0.0,69,0.00,,,0.00,WSDL version 423,2013-08-07 09:48:00,
2013-08-07 05:54:00,68.4,57.8,-100.00,SE,135,0.0,0.0,69,0.00,,,0.00,WSDL version 423,2013-08-07 09:54:00,
2013-08-07 06:00:00,68.4,57.6,-100.00,SE,135,0.0,0.0,68,0.00,,,0.00,WSDL version 423,2013-08-07 10:00:00,
2013-08-07 06:06:00,68.4,57.5,-100.00,SE,135,0.0,0.0,68,0.00,,,0.00,WSDL version 423,2013-08-07 10:06:00,
2013-08-07 06:12:00,68.4,57.8,-100.00,SE,135,0.0,0.0,69,0.00,,,0.00,WSDL version 423,2013-08-07 10:12:00,
2013-08-07 06:18:00,68.4,57.8,-100.00,SE,135,0.0,0.0,69,0.00,,,0.00,WSDL version 423,2013-08-07 10:18:00,
2013-08-07 06:24:00,68.4,57.8,-100.00,SE,135,0.0,0.0,69,0.00,,,0.00,WSDL version 423,2013-08-07 10:24:00,
2013-08-07 06:30:00,68.4,57.8,-100.00,SE,135,0.0,0.0,69,-99.99,,,-99.99,WSDL version 423,2013-08-07 10:30:00,
2013-08-07 06:36:00,68.5,58.0,-100.00,SE,135,0.0,0.0,69,-99.99,,,-99.99,WSDL version 423,2013-08-07 10:36:00,
2013-08-07 06:42:00,68.5,58.0,-100.00,SE,135,0.0,0.0,69,0.00,,,0.00,WSDL version 423,2013-08-07 10:42:00,
2013-08-07 06:48:00,68.7,58.2,-100.00,SE,135,0.0,0.0,69,0.00,,,0.00,WSDL version 423,2013-08-07 10:48:00,
2013-08-07 06:54:00,68.7,58.2,-100.00,SE,135,0.0,0.0,69,-99.99,,,-99.99,WSDL version 423,2013-08-07 10:54:00,
2013-08-07 07:00:00,68.9,58.3,-100.00,SE,135,0.0,0.0,69,0.00,,,0.00,WSDL version 423,2013-08-07 11:00:00,
2013-08-07 07:06:00,69.1,58.5,-100.00,SE,135,0.0,0.0,69,0.00,,,0.00,WSDL version 423,2013-08-07 11:06:00,
2013-08-07 07:12:00,69.1,58.5,-100.00,SE,135,0.0,0.0,69,0.00,,,0.00,WSDL version 423,2013-08-07 11:12:00,
2013-08-07 07:18:00,69.3,58.7,-100.00,SE,135,0.0,0.0,69,0.00,,,0.00,WSDL version 423,2013-08-07 11:18:00,
2013-08-07 07:24:00,69.3,58.7,-100.00,SE,135,0.0,0.0,69,0.00,,,0.00,WSDL version 423,2013-08-07 11:24:00,
2013-08-07 07:30:00,69.4,58.8,-100.00,SE,135,0.0,0.0,69,-99.99,,,-99.99,WSDL version 423,2013-08-07 11:30:00,
2013-08-07 07:36:00,69.6,59.0,-100.00,SE,135,0.0,0.0,69,0.00,,,0.00,WSDL version 423,2013-08-07 11:36:00,
2013-08-07 07:42:00,69.8,58.8,-100.00,SE,135,0.0,0.0,68,0.00,,,0.00,WSDL version 423,2013-08-07 11:42:00,
2013-08-07 07:48:00,69.9,58.8,-100.00,SE,135,0.0,0.0,68,-99.99,,,-99.99,WSDL version 423,2013-08-07 11:48:00,
2013-08-07 07:54:00,70.0,58.9,-100.00,SE,135,0.0,0.0,68,0.00,,,0.00,WSDL version 423,2013-08-07 11:54:00,
2013-08-07 08:00:00,70.1,59.1,-100.00,SE,135,0.0,0.0,68,0.00,,,0.00,WSDL version 423,2013-08-07 12:00:00,
2013-08-07 08:06:00,70.3,59.5,-100.00,SE,135,0.0,0.0,69,-99.99,,,-99.99,WSDL version 423,2013-08-07 12:06:00,
2013-08-07 08:12:00,70.4,59.6,-100.00,SE,135,0.0,0.0,69,0.00,,,0.00,WSDL version 423,2013-08-07 12:12:00,
2013-08-07 08:18:00,70.6,59.9,-100.00,SE,135,0.0,0.0,69,0.00,,,0.00,WSDL version 423,2013-08-07 12:18:00,
2013-08-07 08:24:00,70.9,60.2,-100.00,NW,315,0.0,0.0,69,0.00,,,0.00,WSDL version 423,2013-08-07 12:24:00,
2013-08-07 08:30:00,71.1,60.3,-100.00,South,180,0.0,0.0,69,0.00,,,0.00,WSDL version 423,2013-08-07 12:30:00,
2013-08-07 08:36:00,71.4,60.5,-100.00,West,270,0.0,0.0,68,0.00,,,0.00,WSDL version 423,2013-08-07 12:36:00,
2013-08-07 08:42:00,71.8,60.7,-100.00,West,270,0.0,0.0,68,-99.99,,,-99.99,WSDL version 423,2013-08-07 12:42:00,
2013-08-07 08:48:00,72.0,60.8,-100.00,West,270,0.0,0.0,67,-99.99,,,-99.99,WSDL version 423,2013-08-07 12:48:00,
2013-08-07 08:54:00,72.3,60.7,-100.00,SW,214,0.0,0.0,67,0.00,,,0.00,WSDL version 423,2013-08-07 12:54:00,
2013-08-07 09:00:00,72.3,60.8,-100.00,West,263,0.0,0.0,67,0.00,,,0.00,WSDL version 423,2013-08-07 13:00:00,
2013-08-07 09:06:00,72.3,60.3,-100.00,NW,315,0.0,0.0,66,0.00,,,0.00,WSDL version 423,2013-08-07 13:06:00,
2013-08-07 09:12:00,72.3,60.3,-100.00,West,270,0.0,0.0,66,-99.99,,,-99.99,WSDL version 423,2013-08-07 13:12:00,
2013-08-07 09:18:00,72.3,60.2,-100.00,West,270,0.0,0.0,65,-99.99,,,-99.99,WSDL version 423,2013-08-07 13:18:00,
2013-08-07 09:24:00,72.3,59.9,-100.00,West,270,0.0,0.0,65,-99.99,,,-99.99,WSDL version 423,2013-08-07 13:24:00,
2013-08-07 09:30:00,72.5,60.1,-100.00,West,270,0.0,0.0,65,-99.99,,,-99.99,WSDL version 423,2013-08-07 13:30:00,
2013-08-07 09:36:00,72.9,60.5,-100.00,West,270,0.0,0.0,65,-99.99,,,-99.99,WSDL version 423,2013-08-07 13:36:00,
2013-08-07 09:42:00,72.9,60.4,-100.00,NW,315,0.0,0.0,65,-99.99,,,-99.99,WSDL version 423,2013-08-07 13:42:00,
2013-08-07 09:48:00,72.9,60.4,-100.00,West,270,0.0,0.0,65,-99.99,,,-99.99,WSDL version 423,2013-08-07 13:48:00,
2013-08-07 09:54:00,72.8,60.4,-100.00,South,180,0.0,0.0,65,0.00,,,0.00,WSDL version 423,2013-08-07 13:54:00,
2013-08-07 10:00:00,72.9,60.4,-100.00,SW,225,0.0,0.0,65,0.00,,,0.00,WSDL version 423,2013-08-07 14:00:00,
2013-08-07 10:06:00,72.9,60.4,-100.00,NW,326,0.0,0.0,65,-99.99,,,-99.99,WSDL version 423,2013-08-07 14:06:00,
2013-08-07 10:12:00,72.8,60.4,-100.00,NW,326,0.0,0.0,65,0.00,,,0.00,WSDL version 423,2013-08-07 14:12:00,
2013-08-07 10:18:00,72.7,60.2,-100.00,NNW,329,0.0,0.0,65,-99.99,,,-99.99,WSDL version 423,2013-08-07 14:18:00,
2013-08-07 10:24:00,72.5,60.1,-100.00,NW,315,0.0,0.0,65,0.00,,,0.00,WSDL version 423,2013-08-07 14:24:00,
2013-08-07 10:30:00,72.5,60.1,-100.00,NW,315,0.0,0.0,65,-99.99,,,-99.99,WSDL version 423,2013-08-07 14:30:00,
2013-08-07 10:36:00,72.5,60.1,-100.00,NW,315,0.0,0.0,65,0.00,,,0.00,WSDL version 423,2013-08-07 14:36:00,
2013-08-07 10:42:00,72.4,60.0,-100.00,NW,315,0.0,0.0,65,-99.99,,,-99.99,WSDL version 423,2013-08-07 14:42:00,
2013-08-07 10:48:00,72.1,59.7,-100.00,NW,315,0.0,0.0,65,-99.99,,,-99.99,WSDL version 423,2013-08-07 14:48:00,
2013-08-07 10:54:00,72.3,59.9,-100.00,West,279,0.0,0.0,65,-99.99,,,-99.99,WSDL version 423,2013-08-07 14:54:00,
2013-08-07 11:00:00,72.3,60.3,-100.00,WNW,288,0.0,0.0,66,-99.99,,,-99.99,WSDL version 423,2013-08-07 15:00:00,
2013-08-07 11:06:00,72.1,60.1,-100.00,NW,315,0.0,0.0,66,0.00,,,0.00,WSDL version 423,2013-08-07 15:06:00,
2013-08-07 11:12:00,71.8,60.2,-100.00,SSW,197,0.0,0.0,67,-99.99,,,-99.99,WSDL version 423,2013-08-07 15:12:00,
2013-08-07 11:18:00,71.4,60.2,-100.00,WNW,300,0.0,0.0,68,0.00,,,0.00,WSDL version 423,2013-08-07 15:18:00,
2013-08-07 11:24:00,71.2,60.6,-100.00,West,270,0.0,0.0,69,0.00,,,0.00,WSDL version 423,2013-08-07 15:24:00,
2013-08-07 11:30:00,71.6,60.9,-100.00,North,-999,-999.0,-999.0,69,0.00,,,0.00,WSDL version 423,2013-08-07 15:30:00,
2013-08-07 11:36:00,72.2,61.8,-100.00,WNW,285,0.0,0.0,70,0.00,,,0.00,WSDL version 423,2013-08-07 15:36:00,
2013-08-07 11:42:00,73.0,62.6,-100.00,West,270,0.0,0.0,70,0.00,,,0.00,WSDL version 423,2013-08-07 15:42:00,
2013-08-07 11:48:00,73.5,62.8,-100.00,West,270,0.0,0.0,69,0.00,,,0.00,WSDL version 423,2013-08-07 15:48:00,
2013-08-07 11:54:00,74.0,63.2,-100.00,NW,315,0.0,0.0,69,0.00,,,0.00,WSDL version 423,2013-08-07 15:54:00,
2013-08-07 12:00:00,75.2,64.1,-100.00,North,-999,-999.0,-999.0,68,0.00,,,0.00,WSDL version 423,2013-08-07 16:00:00,
2013-08-07 12:06:00,76.5,65.1,-100.00,North,-999,-999.0,-999.0,68,-99.99,,,-99.99,WSDL version 423,2013-08-07 16:06:00,
2013-08-07 12:12:00,76.6,64.9,-100.00,SW,225,0.0,0.0,67,-99.99,,,-99.99,WSDL version 423,2013-08-07 16:12:00,
2013-08-07 12:18:00,76.9,64.7,-100.00,West,270,0.0,0.0,66,0.00,,,0.00,WSDL version 423,2013-08-07 16:18:00,
2013-08-07 12:24:00,77.6,64.9,-100.00,SE,135,0.0,2.2,65,-99.99,,,-99.99,WSDL version 423,2013-08-07 16:24:00,
2013-08-07 12:30:00,77.7,65.0,-100.00,South,169,0.0,2.2,65,-99.99,,,-99.99,WSDL version 423,2013-08-07 16:30:00,
2013-08-07 12:36:00,77.4,64.4,-100.00,SW,225,0.0,1.6,64,0.00,,,0.00,WSDL version 423,2013-08-07 16:36:00,
2013-08-07 12:42:00,77.0,63.9,-100.00,West,270,0.0,0.0,64,-99.99,,,-99.99,WSDL version 423,2013-08-07 16:42:00,
2013-08-07 12:48:00,77.0,63.8,-100.00,West,270,0.0,0.0,64,-99.99,,,-99.99,WSDL version 423,2013-08-07 16:48:00,
2013-08-07 12:54:00,77.5,64.2,-100.00,West,270,0.0,0.0,63,0.00,,,0.00,WSDL version 423,2013-08-07 16:54:00,
2013-08-07 13:00:00,77.7,64.2,-100.00,West,270,0.0,0.0,63,-99.99,,,-99.99,WSDL version 423,2013-08-07 17:00:00,
2013-08-07 13:06:00,78.1,64.2,-100.00,West,279,0.0,0.0,62,-99.99,,,-99.99,WSDL version 423,2013-08-07 17:06:00,
2013-08-07 13:12:00,78.4,64.2,-100.00,WSW,255,0.0,0.0,61,-99.99,,,-99.99,WSDL version 423,2013-08-07 17:12:00,
2013-08-07 13:18:00,79.2,64.5,-100.00,West,270,0.0,0.0,61,-99.99,,,-99.99,WSDL version 423,2013-08-07 17:18:00,
2013-08-07 13:24:00,79.7,64.6,-100.00,West,263,0.0,0.0,60,-99.99,,,-99.99,WSDL version 423,2013-08-07 17:24:00,
2013-08-07 13:30:00,81.3,65.6,-100.00,North,-999,-999.0,-999.0,59,-99.99,,,-99.99,WSDL version 423,2013-08-07 17:30:00,
2013-08-07 13:36:00,82.5,66.0,-100.00,WSW,248,0.0,0.0,57,-99.99,,,-99.99,WSDL version 423,2013-08-07 17:36:00,
2013-08-07 13:42:00,83.1,66.2,-100.00,SSW,210,0.6,0.0,57,-99.99,,,-99.99,WSDL version 423,2013-08-07 17:42:00,
2013-08-07 13:48:00,82.6,65.4,-100.00,SW,225,0.0,0.0,57,-99.99,,,-99.99,WSDL version 423,2013-08-07 17:48:00,
2013-08-07 13:54:00,82.3,64.7,-100.00,West,281,0.0,0.0,55,-99.99,,,-99.99,WSDL version 423,2013-08-07 17:54:00,
2013-08-07 14:00:00,82.1,64.7,-100.00,South,180,0.0,0.0,56,-99.99,,,-99.99,WSDL version 423,2013-08-07 18:00:00,
2013-08-07 14:06:00,81.9,64.2,-100.00,SSW,205,0.0,0.9,55,-99.99,,,-99.99,WSDL version 423,2013-08-07 18:06:00,
2013-08-07 14:12:00,81.3,63.7,-100.00,West,270,0.0,0.9,55,-99.99,,,-99.99,WSDL version 423,2013-08-07 18:12:00,
2013-08-07 14:18:00,80.8,63.2,-100.00,WNW,293,0.0,0.0,56,-99.99,,,-99.99,WSDL version 423,2013-08-07 18:18:00,
2013-08-07 14:24:00,80.9,63.7,-100.00,WNW,293,0.0,0.0,56,-99.99,,,-99.99,WSDL version 423,2013-08-07 18:24:00,
2013-08-07 14:30:00,80.7,63.5,-100.00,West,270,0.0,0.0,56,0.00,,,0.00,WSDL version 423,2013-08-07 18:30:00,
2013-08-07 14:36:00,80.4,63.8,-100.00,West,270,0.0,0.0,57,-99.99,,,-99.99,WSDL version 423,2013-08-07 18:36:00,
2013-08-07 14:42:00,80.2,63.6,-100.00,West,270,0.0,0.0,57,-99.99,,,-99.99,WSDL version 423,2013-08-07 18:42:00,
2013-08-07 14:48:00,80.0,63.5,-100.00,WNW,300,0.0,0.0,57,-99.99,,,-99.99,WSDL version 423,2013-08-07 18:48:00,
2013-08-07 14:54:00,79.5,63.0,-100.00,West,270,0.0,0.0,57,0.00,,,0.00,WSDL version 423,2013-08-07 18:54:00,
2013-08-07 15:00:00,78.7,62.6,-100.00,WSW,240,0.0,0.0,58,-99.99,,,-99.99,WSDL version 423,2013-08-07 19:00:00,
2013-08-07 15:06:00,78.1,62.6,-100.00,West,270,0.0,0.0,59,-99.99,,,-99.99,WSDL version 423,2013-08-07 19:06:00,
2013-08-07 15:12:00,78.0,62.9,-100.00,North,-999,-999.0,-999.0,60,-99.99,,,-99.99,WSDL version 423,2013-08-07 19:12:00,
2013-08-07 15:18:00,77.6,62.6,-100.00,West,270,0.0,0.0,60,-99.99,,,-99.99,WSDL version 423,2013-08-07 19:18:00,
2013-08-07 15:24:00,77.1,62.2,-100.00,WSW,248,0.0,0.0,60,0.00,,,0.00,WSDL version 423,2013-08-07 19:24:00,
2013-08-07 15:30:00,77.0,62.5,-100.00,South,180,0.0,0.0,61,0.00,,,0.00,WSDL version 423,2013-08-07 19:30:00,
2013-08-07 15:36:00,76.8,62.7,-100.00,West,270,0.0,0.0,62,0.00,,,0.00,WSDL version 423,2013-08-07 19:36:00,
2013-08-07 15:42:00,77.0,62.6,-100.00,North,-999,-999.0,-999.0,61,-99.99,,,-99.99,WSDL version 423,2013-08-07 19:42:00,
2013-08-07 15:48:00,77.2,62.7,-100.00,West,270,0.0,0.0,61,0.00,,,0.00,WSDL version 423,2013-08-07 19:48:00,
2013-08-07 15:54:00,77.3,62.8,-100.00,West,263,0.0,0.0,61,-99.99,,,-99.99,WSDL version 423,2013-08-07 19:54:00,
2013-08-07 16:00:00,77.4,62.9,-100.00,West,270,0.0,0.0,61,0.00,,,0.00,WSDL version 423,2013-08-07 20:00:00,
2013-08-07 16:06:00,77.5,63.0,-100.00,West,270,0.0,0.0,61,0.00,,,0.00,WSDL version 423,2013-08-07 20:06:00,
2013-08-07 16:12:00,77.5,62.9,-100.00,West,275,0.0,0.0,61,0.00,,,0.00,WSDL version 423,2013-08-07 20:12:00,
2013-08-07 16:18:00,77.5,62.8,-100.00,West,270,0.0,0.0,60,-99.99,,,-99.99,WSDL version 423,2013-08-07 20:18:00,
2013-08-07 16:24:00,77.4,62.9,-100.00,West,270,0.0,0.0,61,-99.99,,,-99.99,WSDL version 423,2013-08-07 20:24:00,
2013-08-07 16:30:00,77.0,62.6,-100.00,WNW,293,0.0,0.0,61,-99.99,,,-99.99,WSDL version 423,2013-08-07 20:30:00,
2013-08-07 16:36:00,76.8,62.4,-100.00,West,270,0.0,0.0,61,0.00,,,0.00,WSDL version 423,2013-08-07 20:36:00,
2013-08-07 16:42:00,76.8,62.4,-100.00,West,270,0.0,0.0,61,0.00,,,0.00,WSDL version 423,2013-08-07 20:42:00,
2013-08-07 16:48:00,76.6,62.3,-100.00,West,270,0.0,0.0,62,-99.99,,,-99.99,WSDL version 423,2013-08-07 20:48:00,
2013-08-07 16:54:00,76.2,62.3,-100.00,WNW,300,0.0,0.0,62,0.00,,,0.00,WSDL version 423,2013-08-07 20:54:00,
2013-08-07 17:00:00,75.9,62.0,-100.00,WNW,288,0.0,0.0,62,-99.99,,,-99.99,WSDL version 423,2013-08-07 21:00:00,
2013-08-07 17:06:00,75.9,62.0,-100.00,West,270,0.0,0.0,62,0.00,,,0.00,WSDL version 423,2013-08-07 21:06:00,
2013-08-07 17:12:00,75.8,61.9,-100.00,West,270,0.0,0.0,62,0.00,,,0.00,WSDL version 423,2013-08-07 21:12:00,
2013-08-07 17:18:00,75.7,61.8,-100.00,NW,315,0.0,0.0,62,-99.99,,,-99.99,WSDL version 423,2013-08-07 21:18:00,
2013-08-07 17:24:00,75.5,61.9,-100.00,WSW,240,0.0,0.0,63,-99.99,,,-99.99,WSDL version 423,2013-08-07 21:24:00,
2013-08-07 17:30:00,75.3,61.9,-100.00,North,-999,-999.0,-999.0,63,-99.99,,,-99.99,WSDL version 423,2013-08-07 21:30:00,
2013-08-07 17:36:00,75.2,61.8,-100.00,North,-999,-999.0,-999.0,64,-99.99,,,-99.99,WSDL version 423,2013-08-07 21:36:00,
2013-08-07 17:42:00,74.9,62.3,-100.00,West,270,0.0,0.0,65,0.00,,,0.00,WSDL version 423,2013-08-07 21:42:00,
2013-08-07 17:48:00,74.7,62.6,-100.00,West,270,0.0,0.0,66,-99.99,,,-99.99,WSDL version 423,2013-08-07 21:48:00,
2013-08-07 17:54:00,74.7,62.6,-100.00,WSW,255,0.0,0.0,66,-99.99,,,-99.99,WSDL version 423,2013-08-07 21:54:00,
2013-08-07 18:00:00,74.8,62.7,-100.00,NW,315,0.0,0.0,66,-99.99,,,-99.99,WSDL version 423,2013-08-07 22:00:00,
2013-08-07 18:06:00,74.8,62.7,-100.00,SW,225,0.0,0.0,66,-99.99,,,-99.99,WSDL version 423,2013-08-07 22:06:00,
2013-08-07 18:12:00,74.8,62.7,-100.00,South,180,0.0,0.0,66,0.00,,,0.00,WSDL version 423,2013-08-07 22:12:00,
2013-08-07 18:18:00,74.9,62.8,-100.00,SSE,161,0.0,4.7,66,0.00,,,0.00,WSDL version 423,2013-08-07 22:18:00,
2013-08-07 18:24:00,75.0,62.9,-100.00,West,270,0.0,4.7,66,-99.99,,,-99.99,WSDL version 423,2013-08-07 22:24:00,
2013-08-07 18:30:00,75.0,62.9,-100.00,NNW,333,0.0,0.0,66,-99.99,,,-99.99,WSDL version 423,2013-08-07 22:30:00,
2013-08-07 18:36:00,74.8,62.7,-100.00,NW,315,0.0,0.0,66,-99.99,,,-99.99,WSDL version 423,2013-08-07 22:36:00,
2013-08-07 18:42:00,74.7,62.8,-100.00,West,270,0.0,0.0,67,0.00,,,0.00,WSDL version 423,2013-08-07 22:42:00,
2013-08-07 18:48:00,74.7,62.9,-100.00,West,270,0.0,0.0,67,-99.99,,,-99.99,WSDL version 423,2013-08-07 22:48:00,
2013-08-07 18:54:00,74.6,62.9,-100.00,West,270,0.0,0.0,67,0.00,,,0.00,WSDL version 423,2013-08-07 22:54:00,
2013-08-07 19:00:00,74.5,62.8,-100.00,West,270,0.0,0.0,67,-99.99,,,-99.99,WSDL version 423,2013-08-07 23:00:00,
2013-08-07 19:06:00,74.3,62.6,-100.00,West,270,0.0,0.0,67,0.00,,,0.00,WSDL version 423,2013-08-07 23:06:00,
2013-08-07 19:12:00,74.3,62.6,-100.00,West,270,0.0,0.0,67,0.00,,,0.00,WSDL version 423,2013-08-07 23:12:00,
2013-08-07 19:18:00,74.3,62.6,-100.00,West,270,0.0,0.0,67,0.00,,,0.00,WSDL version 423,2013-08-07 23:18:00,
2013-08-07 19:24:00,74.1,62.5,-100.00,West,270,0.0,0.0,67,0.00,,,0.00,WSDL version 423,2013-08-07 23:24:00,
2013-08-07 19:30:00,74.1,62.5,-100.00,West,270,0.0,0.0,67,0.00,,,0.00,WSDL version 423,2013-08-07 23:30:00,
2013-08-07 19:36:00,74.1,62.5,-100.00,SW,225,0.0,0.0,67,0.00,,,0.00,WSDL version 423,2013-08-07 23:36:00,
2013-08-07 19:42:00,74.1,62.7,-100.00,North,-999,-999.0,-999.0,68,0.00,,,0.00,WSDL version 423,2013-08-07 23:42:00,
2013-08-07 19:48:00,73.9,62.7,-100.00,North,-999,-999.0,-999.0,68,0.00,,,0.00,WSDL version 423,2013-08-07 23:48:00,
2013-08-07 19:54:00,73.9,62.7,-100.00,North,-999,-999.0,-999.0,68,0.00,,,0.00,WSDL version 423,2013-08-07 23:54:00,
2013-08-07 20:00:00,73.9,62.7,-100.00,North,-999,-999.0,-999.0,68,0.00,,,0.00,WSDL version 423,2013-08-08 00:00:00,
2013-08-07 20:06:00,73.8,62.5,-100.00,North,-999,-999.0,-999.0,68,0.00,,,0.00,WSDL version 423,2013-08-08 00:06:00,
2013-08-07 20:12:00,73.8,62.5,-100.00,North,-999,-999.0,-999.0,68,-99.99,,,-99.99,WSDL version 423,2013-08-08 00:12:00,
2013-08-07 20:18:00,73.6,62.4,-100.00,North,-999,-999.0,-999.0,68,-99.99,,,-99.99,WSDL version 423,2013-08-08 00:18:00,
2013-08-07 20:24:00,73.6,62.4,-100.00,North,-999,-999.0,-999.0,68,0.00,,,0.00,WSDL version 423,2013-08-08 00:24:00,
2013-08-07 20:30:00,73.5,62.4,-100.00,North,-999,-999.0,-999.0,69,0.00,,,0.00,WSDL version 423,2013-08-08 00:30:00,
2013-08-07 20:36:00,73.4,62.6,-100.00,SW,236,0.0,0.0,69,0.00,,,0.00,WSDL version 423,2013-08-08 00:36:00,
2013-08-07 20:42:00,73.4,62.7,-100.00,South,173,0.0,1.6,69,0.00,,,0.00,WSDL version 423,2013-08-08 00:42:00,
2013-08-07 20:48:00,73.4,62.6,-100.00,ESE,113,0.0,1.6,69,0.00,,,0.00,WSDL version 423,2013-08-08 00:48:00,
2013-08-07 20:54:00,73.3,62.8,-100.00,SE,131,0.0,0.0,70,0.00,,,0.00,WSDL version 423,2013-08-08 00:54:00,
2013-08-07 21:00:00,73.1,62.7,-100.00,SE,135,0.0,0.0,70,0.00,,,0.00,WSDL version 423,2013-08-08 01:00:00,
2013-08-07 21:06:00,73.0,62.6,-100.00,West,281,0.0,0.0,70,0.00,,,0.00,WSDL version 423,2013-08-08 01:06:00,
2013-08-07 21:12:00,72.9,62.5,-100.00,NW,315,0.0,0.0,70,0.00,,,0.00,WSDL version 423,2013-08-08 01:12:00,
2013-08-07 21:18:00,72.9,62.5,-100.00,NW,315,0.0,0.0,70,0.00,,,0.00,WSDL version 423,2013-08-08 01:18:00,
2013-08-07 21:24:00,72.9,62.9,-100.00,NW,315,0.0,0.0,71,0.00,,,0.00,WSDL version 423,2013-08-08 01:24:00,
2013-08-07 21:30:00,72.9,62.9,-100.00,NW,315,0.0,0.0,71,0.00,,,0.00,WSDL version 423,2013-08-08 01:30:00,
2013-08-07 21:36:00,72.8,62.9,-100.00,NW,315,0.0,0.0,71,0.00,,,0.00,WSDL version 423,2013-08-08 01:36:00,
2013-08-07 21:42:00,72.7,62.3,-100.00,South,180,0.0,0.0,70,-99.99,,,-99.99,WSDL version 423,2013-08-08 01:42:00,
2013-08-07 21:48:00,72.7,62.7,-100.00,South,180,0.0,0.0,71,0.00,,,0.00,WSDL version 423,2013-08-08 01:48:00,
2013-08-07 21:54:00,72.7,62.7,-100.00,South,180,0.0,0.0,71,-99.99,,,-99.99,WSDL version 423,2013-08-08 01:54:00,
2013-08-07 22:00:00,72.7,62.7,-100.00,South,180,0.0,0.0,71,0.00,,,0.00,WSDL version 423,2013-08-08 02:00:00,
2013-08-07 22:06:00,72.5,62.6,-100.00,South,180,0.0,0.0,71,0.00,,,0.00,WSDL version 423,2013-08-08 02:06:00,
2013-08-07 22:12:00,72.5,62.6,-100.00,South,180,0.0,0.0,71,0.00,,,0.00,WSDL version 423,2013-08-08 02:12:00,
2013-08-07 22:18:00,72.5,62.6,-100.00,South,180,0.0,0.0,71,0.00,,,0.00,WSDL version 423,2013-08-08 02:18:00,
2013-08-07 22:24:00,72.5,62.6,-100.00,West,279,0.0,0.0,71,0.00,,,0.00,WSDL version 423,2013-08-08 02:24:00,
2013-08-07 22:30:00,72.5,62.6,-100.00,SW,225,0.0,0.0,71,0.00,,,0.00,WSDL version 423,2013-08-08 02:30:00,
2013-08-07 22:36:00,72.3,62.4,-100.00,SW,225,0.0,0.0,71,0.00,,,0.00,WSDL version 423,2013-08-08 02:36:00,
2013-08-07 22:42:00,72.3,62.4,-100.00,SSE,158,0.0,0.0,71,0.00,,,0.00,WSDL version 423,2013-08-08 02:42:00,
2013-08-07 22:48:00,72.3,62.7,-100.00,West,270,0.0,0.0,72,-99.99,,,-99.99,WSDL version 423,2013-08-08 02:48:00,
2013-08-07 22:54:00,72.3,62.8,-100.00,SW,225,0.0,0.0,72,0.00,,,0.00,WSDL version 423,2013-08-08 02:54:00,
2013-08-07 23:00:00,72.3,62.8,-100.00,SW,225,0.0,0.0,72,0.00,,,0.00,WSDL version 423,2013-08-08 03:00:00,
2013-08-07 23:06:00,72.3,62.8,-100.00,SW,225,0.0,0.0,72,0.00,,,0.00,WSDL version 423,2013-08-08 03:06:00,
2013-08-07 23:12:00,72.2,62.7,-100.00,SSW,200,0.0,0.0,72,0.00,,,0.00,WSDL version 423,2013-08-08 03:12:00,
2013-08-07 23:18:00,72.1,63.0,-100.00,East,90,0.0,0.0,73,-99.99,,,-99.99,WSDL version 423,2013-08-08 03:18:00,
2013-08-07 23:24:00,72.1,63.0,-100.00,East,90,0.0,0.0,73,0.00,,,0.00,WSDL version 423,2013-08-08 03:24:00,
2013-08-07 23:30:00,72.1,63.0,-100.00,East,90,0.0,0.0,73,0.00,,,0.00,WSDL version 423,2013-08-08 03:30:00,
2013-08-07 23:36:00,72.1,63.0,-100.00,East,90,0.0,0.0,73,0.00,,,0.00,WSDL version 423,2013-08-08 03:36:00,
2013-08-07 23:42:00,72.1,63.0,-100.00,East,90,0.0,0.0,73,-99.99,,,-99.99,WSDL version 423,2013-08-08 03:42:00,
2013-08-07 23:48:00,72.1,63.1,-100.00,WSW,248,0.0,0.0,74,0.00,,,0.00,WSDL version 423,2013-08-08 03:48:00,
2013-08-07 23:54:00,72.0,63.2,-100.00,South,180,0.0,0.0,74,0.00,,,0.00,WSDL version 423,2013-08-08 03:54:00,